| time (UTC) | temp C | wind direction | speed KPH | gust KPH | rain 1hr cm | rain 24hr cm | rain mn cm | humidity % | barometer mb |
| 20260505091042 | 13 | 58 | 4.8 | 11.3 | 0.00 | 0.00 | 0.00 | 73 | 1009.2 |
| 20260505090542 | 13 | 67 | 6.4 | 12.9 | 0.00 | 0.00 | 0.00 | 73 | 1009.2 |
| 20260505090216 | 14 | 69 | 6.4 | 12.9 | 0.00 | 0.00 | 0.00 | 74 | 1009.2 |
| 20260505085521 | 14 | 73 | 4.8 | 11.3 | 0.00 | 0.00 | 0.00 | 74 | 1009.2 |
| 20260505085037 | 14 | 69 | 4.8 | 8.0 | 0.00 | 0.00 | 0.00 | 74 | 1009.2 |
| 20260505084800 | 14 | 55 | 3.2 | 6.4 | 0.00 | 0.00 | 0.00 | 74 | 1009.2 |
| 20260505084027 | 14 | 27 | 3.2 | 9.7 | 0.00 | 0.00 | 0.00 | 74 | 1009.1 |
| 20260505083529 | 15 | 44 | 4.8 | 9.7 | 0.00 | 0.00 | 0.00 | 74 | 1009.0 |
| 20260505083147 | 15 | 34 | 4.8 | 9.7 | 0.00 | 0.00 | 0.00 | 72 | 1009.0 |
| 20260505082542 | 15 | 45 | 4.8 | 8.0 | 0.00 | 0.00 | 0.00 | 73 | 1009.1 |
| 20260505082034 | 15 | 65 | 3.2 | 14.5 | 0.00 | 0.00 | 0.00 | 73 | 1009.0 |
| 20260505081700 | 15 | 74 | 8.0 | 14.5 | 0.00 | 0.00 | 0.00 | 74 | 1008.8 |
| 20260505081027 | 15 | 118 | 3.2 | 9.7 | 0.00 | 0.00 | 0.00 | 73 | 1009.1 |
| 20260505080541 | 15 | 86 | 4.8 | 12.9 | 0.00 | 0.00 | 0.00 | 73 | 1008.9 |
| 20260505080211 | 15 | 80 | 6.4 | 14.5 | 0.00 | 0.00 | 0.00 | 72 | 1008.8 |
| 20260505075543 | 15 | 65 | 8.0 | 14.5 | 0.00 | 0.00 | 0.00 | 71 | 1008.7 |
| 20260505075022 | 16 | 78 | 6.4 | 12.9 | 0.00 | 0.00 | 0.00 | 70 | 1008.7 |
| 20260505074709 | 16 | 81 | 4.8 | 11.3 | 0.00 | 0.00 | 0.00 | 69 | 1008.5 |
| 20260505074028 | 16 | 58 | 6.4 | 11.3 | 0.00 | 0.00 | 0.00 | 67 | 1008.6 |
| 20260505073535 | 16 | 34 | 4.8 | 14.5 | 0.00 | 0.00 | 0.00 | 67 | 1008.6 |
| 20260505073150 | 16 | 67 | 6.4 | 11.3 | 0.00 | 0.00 | 0.00 | 67 | 1008.6 |
| 20260505072533 | 16 | 41 | 6.4 | 14.5 | 0.00 | 0.00 | 0.00 | 67 | 1008.5 |
| 20260505072023 | 16 | 35 | 4.8 | 14.5 | 0.00 | 0.00 | 0.00 | 68 | 1008.5 |
| 20260505071620 | 16 | 36 | 8.0 | 16.1 | 0.00 | 0.00 | 0.00 | 68 | 1008.5 |
| 20260505071041 | 16 | 55 | 6.4 | 16.1 | 0.00 | 0.00 | 0.00 | 68 | 1008.4 |
| 20260505070520 | 16 | 58 | 8.0 | 14.5 | 0.00 | 0.00 | 0.00 | 67 | 1008.3 |
| 20260505070147 | 16 | 55 | 6.4 | 14.5 | 0.00 | 0.00 | 0.00 | 66 | 1008.2 |
| 20260505065528 | 16 | 62 | 8.0 | 14.5 | 0.00 | 0.00 | 0.00 | 66 | 1008.2 |
| 20260505065042 | 16 | 88 | 6.4 | 12.9 | 0.00 | 0.00 | 0.00 | 65 | 1008.0 |
| 20260505064658 | 16 | 68 | 8.0 | 14.5 | 0.00 | 0.00 | 0.00 | 65 | 1008.0 |
| 20260505064020 | 16 | 61 | 8.0 | 14.5 | 0.00 | 0.00 | 0.00 | 64 | 1007.9 |
| 20260505063517 | 17 | 65 | 6.4 | 11.3 | 0.00 | 0.00 | 0.00 | 64 | 1007.9 |
| 20260505063209 | 17 | 49 | 4.8 | 9.7 | 0.00 | 0.00 | 0.00 | 63 | 1007.9 |
| 20260505062528 | 17 | 62 | 4.8 | 9.7 | 0.00 | 0.00 | 0.00 | 62 | 1008.0 |
| 20260505062026 | 17 | 90 | 6.4 | 9.7 | 0.00 | 0.00 | 0.00 | 61 | 1007.9 |
| 20260505061628 | 17 | 71 | 3.2 | 8.0 | 0.00 | 0.00 | 0.00 | 60 | 1008.0 |
| 20260505061032 | 18 | 57 | 3.2 | 8.0 | 0.00 | 0.00 | 0.00 | 59 | 1008.0 |
| 20260505060538 | 18 | 43 | 3.2 | 6.4 | 0.00 | 0.00 | 0.00 | 57 | 1008.0 |
| 20260505060201 | 18 | 5 | 0.0 | 6.4 | 0.00 | 0.00 | 0.00 | 56 | 1007.9 |
| 20260505055534 | 18 | 49 | 3.2 | 6.4 | 0.00 | 0.00 | 0.00 | 56 | 1007.9 |
| 20260505055049 | 18 | 80 | 4.8 | 11.3 | 0.00 | 0.00 | 0.00 | 55 | 1007.8 |
| 20260505054657 | 18 | 46 | 4.8 | 11.3 | 0.00 | 0.00 | 0.00 | 55 | 1007.8 |
| 20260505054024 | 18 | 38 | 6.4 | 14.5 | 0.00 | 0.00 | 0.00 | 54 | 1007.8 |
| 20260505053520 | 18 | 56 | 8.0 | 14.5 | 0.00 | 0.00 | 0.00 | 54 | 1007.7 |
| 20260505053124 | 20 | 72 | 8.0 | 12.9 | 0.00 | 0.00 | 0.00 | 52 | 1007.8 |
| 20260505052529 | 20 | 22 | 4.8 | 8.0 | 0.00 | 0.00 | 0.00 | 50 | 1007.7 |
| 20260505052038 | 20 | 352 | 3.2 | 6.4 | 0.00 | 0.00 | 0.00 | 49 | 1007.8 |
| 20260505051706 | 20 | 333 | 3.2 | 6.4 | 0.00 | 0.00 | 0.00 | 48 | 1007.7 |
| 20260505051042 | 20 | 298 | 0.0 | 11.3 | 0.00 | 0.00 | 0.00 | 50 | 1007.8 |
| 20260505050539 | 19 | 298 | 4.8 | 11.3 | 0.00 | 0.00 | 0.00 | 51 | 1007.8 |
| 20260505050208 | 19 | 324 | 3.2 | 9.7 | 0.00 | 0.00 | 0.00 | 51 | 1007.7 |
| 20260505041658 | 21 | 62 | 4.8 | 19.3 | 0.00 | 0.00 | 0.00 | 45 | 1007.2 |
| 20260505041028 | 22 | 75 | 11.3 | 19.3 | 0.00 | 0.00 | 0.00 | 43 | 1007.2 |
| 20260505040526 | 22 | 14 | 6.4 | 14.5 | 0.00 | 0.00 | 0.00 | 38 | 1007.0 |
| 20260505040204 | 22 | 16 | 6.4 | 14.5 | 0.00 | 0.00 | 0.00 | 39 | 1007.1 |
| 20260505035543 | 21 | 36 | 4.8 | 9.7 | 0.00 | 0.00 | 0.00 | 39 | 1007.0 |
| 20260505035041 | 21 | 13 | 4.8 | 8.0 | 0.00 | 0.00 | 0.00 | 41 | 1006.8 |
| 20260505034643 | 21 | 5 | 0.0 | 0.0 | 0.00 | 0.00 | 0.00 | 42 | 1006.8 |
| 20260505034042 | 21 | 38 | 0.0 | 0.0 | 0.00 | 0.00 | 0.00 | 42 | 1006.8 |
| 20260505033524 | 21 | 51 | 0.0 | 0.0 | 0.00 | 0.00 | 0.00 | 42 | 1006.7 |
| 20260505033150 | 22 | 65 | 0.0 | 1.6 | 0.00 | 0.00 | 0.00 | 42 | 1006.7 |
| 20260505032541 | 22 | 65 | 0.0 | 1.6 | 0.00 | 0.00 | 0.00 | 41 | 1006.7 |
| 20260505032024 | 23 | 349 | 0.0 | 8.0 | 0.00 | 0.00 | 0.00 | 39 | 1006.7 |
| 20260505031650 | 25 | 338 | 1.6 | 8.0 | 0.00 | 0.00 | 0.00 | 35 | 1006.6 |
| 20260505031042 | 25 | 341 | 3.2 | 9.7 | 0.00 | 0.00 | 0.00 | 34 | 1006.6 |
| 20260505030522 | 24 | 337 | 4.8 | 9.7 | 0.00 | 0.00 | 0.00 | 34 | 1006.6 |
| 20260505030150 | 25 | 352 | 6.4 | 9.7 | 0.00 | 0.00 | 0.00 | 36 | 1006.6 |
| 20260505025530 | 25 | 360 | 3.2 | 6.4 | 0.00 | 0.00 | 0.00 | 38 | 1006.5 |
| 20260505025020 | 25 | 348 | 0.0 | 4.8 | 0.00 | 0.00 | 0.00 | 37 | 1006.3 |
| 20260505024625 | 26 | 347 | 3.2 | 6.4 | 0.00 | 0.00 | 0.00 | 33 | 1006.4 |
| 20260505024032 | 26 | 337 | 3.2 | 6.4 | 0.00 | 0.00 | 0.00 | 32 | 1006.5 |
| 20260505023522 | 26 | 346 | 3.2 | 6.4 | 0.00 | 0.00 | 0.00 | 32 | 1006.6 |
| 20260505023128 | 27 | 352 | 3.2 | 4.8 | 0.00 | 0.00 | 0.00 | 32 | 1006.6 |
| 20260505022520 | 27 | 14 | 1.6 | 4.8 | 0.00 | 0.00 | 0.00 | 31 | 1006.6 |
| 20260505022022 | 28 | 5 | 3.2 | 4.8 | 0.00 | 0.00 | 0.00 | 29 | 1006.6 |
| 20260505021659 | 28 | 18 | 1.6 | 6.4 | 0.00 | 0.00 | 0.00 | 26 | 1006.7 |
| 20260505021034 | 29 | 18 | 3.2 | 9.7 | 0.00 | 0.00 | 0.00 | 26 | 1006.7 |
| 20260505020534 | 30 | 13 | 4.8 | 14.5 | 0.00 | 0.00 | 0.00 | 24 | 1006.7 |
| 20260505020135 | 30 | 11 | 8.0 | 14.5 | 0.00 | 0.00 | 0.00 | 21 | 1006.8 |
| 20260505015521 | 30 | 24 | 9.7 | 14.5 | 0.00 | 0.00 | 0.00 | 21 | 1006.7 |
| 20260505015037 | 30 | 15 | 8.0 | 12.9 | 0.00 | 0.00 | 0.00 | 21 | 1006.8 |
| 20260505014650 | 30 | 11 | 8.0 | 12.9 | 0.00 | 0.00 | 0.00 | 22 | 1006.8 |
| 20260505014037 | 31 | 28 | 8.0 | 12.9 | 0.00 | 0.00 | 0.00 | 20 | 1006.9 |
| 20260505013527 | 31 | 10 | 3.2 | 14.5 | 0.00 | 0.00 | 0.00 | 20 | 1007.0 |
| 20260505013131 | 31 | 28 | 8.0 | 14.5 | 0.00 | 0.00 | 0.00 | 19 | 1007.1 |
| 20260505012526 | 31 | 17 | 8.0 | 19.3 | 0.00 | 0.00 | 0.00 | 19 | 1007.1 |
| 20260505012041 | 31 | 352 | 14.5 | 20.9 | 0.00 | 0.00 | 0.00 | 19 | 1007.1 |
| 20260505011610 | 31 | 9 | 16.1 | 25.7 | 0.00 | 0.00 | 0.00 | 19 | 1007.2 |
| 20260505011021 | 31 | 30 | 9.7 | 20.9 | 0.00 | 0.00 | 0.00 | 19 | 1007.2 |
| 20260505010525 | 31 | 12 | 12.9 | 19.3 | 0.00 | 0.00 | 0.00 | 19 | 1007.3 |
| 20260505010151 | 31 | 26 | 6.4 | 16.1 | 0.00 | 0.00 | 0.00 | 18 | 1007.2 |
| 20260505005520 | 31 | 360 | 11.3 | 19.3 | 0.00 | 0.00 | 0.00 | 18 | 1007.3 |
| 20260505005031 | 31 | 360 | 9.7 | 22.5 | 0.00 | 0.00 | 0.00 | 18 | 1007.4 |
| 20260505004643 | 31 | 348 | 14.5 | 22.5 | 0.00 | 0.00 | 0.00 | 18 | 1007.3 |
| 20260505004034 | 31 | 20 | 8.0 | 17.7 | 0.00 | 0.00 | 0.00 | 19 | 1007.3 |
| 20260505003538 | 31 | 336 | 9.7 | 19.3 | 0.00 | 0.00 | 0.00 | 18 | 1007.4 |
| 20260505003142 | 31 | 316 | 14.5 | 19.3 | 0.00 | 0.00 | 0.00 | 18 | 1007.4 |
| 20260505002526 | 31 | 344 | 8.0 | 19.3 | 0.00 | 0.00 | 0.00 | 17 | 1007.3 |
| 20260505002030 | 31 | 23 | 9.7 | 19.3 | 0.00 | 0.00 | 0.00 | 18 | 1007.5 |
| 20260505001638 | 31 | 352 | 9.7 | 22.5 | 0.00 | 0.00 | 0.00 | 20 | 1007.4 |
| 20260505001026 | 31 | 326 | 17.7 | 22.5 | 0.00 | 0.00 | 0.00 | 22 | 1007.3 |
| 20260505000527 | 31 | 325 | 16.1 | 24.1 | 0.00 | 0.00 | 0.00 | 19 | 1007.3 |
| 20260505000153 | 31 | 324 | 19.3 | 25.7 | 0.00 | 0.00 | 0.00 | 19 | 1007.4 |
| 20260504235522 | 31 | 337 | 16.1 | 25.7 | 0.00 | 0.00 | 0.00 | 18 | 1007.5 |
| 20260504235019 | 31 | 340 | 17.7 | 25.7 | 0.00 | 0.00 | 0.00 | 18 | 1007.4 |
| 20260504234638 | 31 | 320 | 16.1 | 29.0 | 0.00 | 0.00 | 0.00 | 17 | 1007.4 |
| 20260504234019 | 32 | 344 | 19.3 | 29.0 | 0.00 | 0.00 | 0.00 | 18 | 1007.6 |
| 20260504233515 | 32 | 340 | 17.7 | 25.7 | 0.00 | 0.00 | 0.00 | 17 | 1007.4 |
| 20260504233111 | 32 | 322 | 12.9 | 22.5 | 0.00 | 0.00 | 0.00 | 18 | 1007.4 |
| 20260504232523 | 32 | 328 | 12.9 | 24.1 | 0.00 | 0.00 | 0.00 | 16 | 1007.6 |
| 20260504232030 | 32 | 321 | 14.5 | 24.1 | 0.00 | 0.00 | 0.00 | 18 | 1007.6 |
| 20260504231643 | 31 | 291 | 11.3 | 20.9 | 0.00 | 0.00 | 0.00 | 17 | 1007.6 |
| 20260504231027 | 31 | 20 | 11.3 | 22.5 | 0.00 | 0.00 | 0.00 | 17 | 1007.7 |
| 20260504230521 | 31 | 347 | 16.1 | 25.7 | 0.00 | 0.00 | 0.00 | 16 | 1007.6 |
| 20260504230152 | 31 | 344 | 20.9 | 25.7 | 0.00 | 0.00 | 0.00 | 17 | 1007.7 |
| 20260504225542 | 32 | 319 | 19.3 | 25.7 | 0.00 | 0.00 | 0.00 | 17 | 1007.8 |
| 20260504225033 | 32 | 344 | 16.1 | 27.4 | 0.00 | 0.00 | 0.00 | 17 | 1007.7 |
| 20260504224636 | 32 | 352 | 19.3 | 33.8 | 0.00 | 0.00 | 0.00 | 17 | 1007.8 |
| 20260504224031 | 32 | 349 | 22.5 | 33.8 | 0.00 | 0.00 | 0.00 | 17 | 1007.8 |
| 20260504223522 | 32 | 23 | 16.1 | 25.7 | 0.00 | 0.00 | 0.00 | 17 | 1007.8 |
| 20260504223140 | 32 | 360 | 14.5 | 27.4 | 0.00 | 0.00 | 0.00 | 18 | 1007.8 |
| 20260504222528 | 32 | 352 | 11.3 | 20.9 | 0.00 | 0.00 | 0.00 | 17 | 1007.8 |
| 20260504222019 | 32 | 329 | 4.8 | 22.5 | 0.00 | 0.00 | 0.00 | 17 | 1007.9 |
| 20260504221650 | 32 | 352 | 8.0 | 22.5 | 0.00 | 0.00 | 0.00 | 18 | 1008.0 |
| 20260504221043 | 32 | 17 | 6.4 | 22.5 | 0.00 | 0.00 | 0.00 | 19 | 1008.0 |
| 20260504220522 | 32 | 344 | 14.5 | 22.5 | 0.00 | 0.00 | 0.00 | 18 | 1008.1 |
| 20260504220211 | 32 | 343 | 4.8 | 17.7 | 0.00 | 0.00 | 0.00 | 18 | 1008.1 |
| 20260504215534 | 32 | 279 | 8.0 | 17.7 | 0.00 | 0.00 | 0.00 | 19 | 1008.2 |
| 20260504215027 | 32 | 22 | 6.4 | 14.5 | 0.00 | 0.00 | 0.00 | 20 | 1008.1 |
| 20260504214658 | 32 | 18 | 0.0 | 14.5 | 0.00 | 0.00 | 0.00 | 19 | 1008.2 |
| 20260504214035 | 32 | 33 | 0.0 | 16.1 | 0.00 | 0.00 | 0.00 | 18 | 1008.2 |
| 20260504213544 | 32 | 292 | 8.0 | 17.7 | 0.00 | 0.00 | 0.00 | 18 | 1008.3 |
| 20260504213157 | 32 | 333 | 4.8 | 19.3 | 0.00 | 0.00 | 0.00 | 19 | 1008.4 |
| 20260504212531 | 32 | 330 | 8.0 | 19.3 | 0.00 | 0.00 | 0.00 | 19 | 1008.4 |
| 20260504212040 | 31 | 340 | 1.6 | 19.3 | 0.00 | 0.00 | 0.00 | 19 | 1008.4 |
| 20260504211647 | 31 | 343 | 1.6 | 16.1 | 0.00 | 0.00 | 0.00 | 20 | 1008.3 |
| 20260504211019 | 31 | 51 | 3.2 | 16.1 | 0.00 | 0.00 | 0.00 | 20 | 1008.5 |
| 20260504210530 | 31 | 343 | 0.0 | 9.7 | 0.00 | 0.00 | 0.00 | 20 | 1008.6 |
| 20260504210158 | 31 | 309 | 1.6 | 14.5 | 0.00 | 0.00 | 0.00 | 21 | 1008.7 |
| 20260504205543 | 31 | 317 | 4.8 | 14.5 | 0.00 | 0.00 | 0.00 | 21 | 1008.8 |
| 20260504205024 | 30 | 279 | 0.0 | 3.2 | 0.00 | 0.00 | 0.00 | 26 | 1009.0 |
| 20260504204657 | 30 | 105 | 0.0 | 6.4 | 0.00 | 0.00 | 0.00 | 28 | 1009.0 |
| 20260504204035 | 30 | 296 | 0.0 | 9.7 | 0.00 | 0.00 | 0.00 | 25 | 1009.0 |
| 20260504203520 | 30 | 49 | 3.2 | 12.9 | 0.00 | 0.00 | 0.00 | 28 | 1009.1 |
| 20260504203201 | 30 | 120 | 4.8 | 14.5 | 0.00 | 0.00 | 0.00 | 26 | 1009.2 |
| 20260504202531 | 30 | 90 | 6.4 | 19.3 | 0.00 | 0.00 | 0.00 | 31 | 1009.2 |
| 20260504202042 | 30 | 106 | 4.8 | 19.3 | 0.00 | 0.00 | 0.00 | 27 | 1009.3 |
| 20260504201612 | 30 | 90 | 6.4 | 16.1 | 0.00 | 0.00 | 0.00 | 27 | 1009.3 |
| 20260504201026 | 30 | 94 | 1.6 | 11.3 | 0.00 | 0.00 | 0.00 | 25 | 1009.3 |
| 20260504200528 | 30 | 62 | 4.8 | 16.1 | 0.00 | 0.00 | 0.00 | 26 | 1009.4 |
| 20260504200203 | 30 | 86 | 8.0 | 16.1 | 0.00 | 0.00 | 0.00 | 26 | 1009.5 |
| 20260504195522 | 30 | 43 | 1.6 | 22.5 | 0.00 | 0.00 | 0.00 | 23 | 1009.4 |
| 20260504195038 | 29 | 15 | 8.0 | 24.1 | 0.00 | 0.00 | 0.00 | 24 | 1009.5 |
| 20260504194707 | 30 | 10 | 14.5 | 24.1 | 0.00 | 0.00 | 0.00 | 22 | 1009.6 |
| 20260504194034 | 30 | 22 | 14.5 | 22.5 | 0.00 | 0.00 | 0.00 | 24 | 1009.6 |
| 20260504193521 | 29 | 350 | 11.3 | 22.5 | 0.00 | 0.00 | 0.00 | 24 | 1009.7 |
| 20260504193203 | 29 | 323 | 14.5 | 19.3 | 0.00 | 0.00 | 0.00 | 25 | 1009.7 |
| 20260504192528 | 29 | 342 | 8.0 | 19.3 | 0.00 | 0.00 | 0.00 | 26 | 1009.8 |
| 20260504192021 | 29 | 352 | 9.7 | 24.1 | 0.00 | 0.00 | 0.00 | 27 | 1009.8 |
| 20260504191650 | 28 | 11 | 8.0 | 24.1 | 0.00 | 0.00 | 0.00 | 26 | 1009.9 |
| 20260504191036 | 28 | 271 | 4.8 | 14.5 | 0.00 | 0.00 | 0.00 | 28 | 1010.0 |
| 20260504190529 | 28 | 337 | 3.2 | 17.7 | 0.00 | 0.00 | 0.00 | 28 | 1010.1 |
| 20260504190227 | 28 | 352 | 9.7 | 17.7 | 0.00 | 0.00 | 0.00 | 29 | 1010.1 |
| 20260504185540 | 28 | 5 | 6.4 | 20.9 | 0.00 | 0.00 | 0.00 | 29 | 1010.0 |
| 20260504185034 | 28 | 343 | 14.5 | 20.9 | 0.00 | 0.00 | 0.00 | 28 | 1010.2 |
| 20260504184642 | 27 | 31 | 12.9 | 20.9 | 0.00 | 0.00 | 0.00 | 29 | 1010.2 |
| 20260504184035 | 27 | 5 | 9.7 | 20.9 | 0.00 | 0.00 | 0.00 | 29 | 1010.3 |
| 20260504183528 | 27 | 351 | 12.9 | 22.5 | 0.00 | 0.00 | 0.00 | 29 | 1010.2 |
| 20260504183200 | 27 | 10 | 12.9 | 20.9 | 0.00 | 0.00 | 0.00 | 28 | 1010.2 |
| 20260504182521 | 27 | 9 | 9.7 | 20.9 | 0.00 | 0.00 | 0.00 | 29 | 1010.2 |
| 20260504182022 | 27 | 5 | 9.7 | 20.9 | 0.00 | 0.00 | 0.00 | 28 | 1010.3 |
| 20260504181712 | 27 | 344 | 9.7 | 20.9 | 0.00 | 0.00 | 0.00 | 29 | 1010.2 |
| 20260504181021 | 27 | 9 | 4.8 | 17.7 | 0.00 | 0.00 | 0.00 | 30 | 1010.2 |
| 20260504180528 | 26 | 334 | 12.9 | 17.7 | 0.00 | 0.00 | 0.00 | 29 | 1010.3 |
| 20260504180232 | 26 | 17 | 12.9 | 22.5 | 0.00 | 0.00 | 0.00 | 29 | 1010.2 |
| 20260504175537 | 26 | 352 | 16.1 | 25.7 | 0.00 | 0.00 | 0.00 | 29 | 1010.3 |
| 20260504175021 | 26 | 30 | 12.9 | 25.7 | 0.00 | 0.00 | 0.00 | 29 | 1010.2 |
| 20260504174711 | 26 | 46 | 6.4 | 17.7 | 0.00 | 0.00 | 0.00 | 34 | 1010.1 |
| 20260504174044 | 26 | 360 | 6.4 | 17.7 | 0.00 | 0.00 | 0.00 | 33 | 1010.2 |
| 20260504173516 | 25 | 311 | 8.0 | 16.1 | 0.00 | 0.00 | 0.00 | 33 | 1010.1 |
| 20260504173157 | 25 | 284 | 6.4 | 16.1 | 0.00 | 0.00 | 0.00 | 34 | 1010.3 |
| 20260504172543 | 25 | 274 | 8.0 | 12.9 | 0.00 | 0.00 | 0.00 | 34 | 1010.3 |
| 20260504172022 | 25 | 280 | 8.0 | 12.9 | 0.00 | 0.00 | 0.00 | 34 | 1010.4 |
| 20260504171711 | 25 | 269 | 6.4 | 12.9 | 0.00 | 0.00 | 0.00 | 34 | 1010.5 |
| 20260504171023 | 24 | 300 | 6.4 | 9.7 | 0.00 | 0.00 | 0.00 | 36 | 1010.4 |
| 20260504170531 | 24 | 263 | 4.8 | 8.0 | 0.00 | 0.00 | 0.00 | 36 | 1010.4 |
| 20260504170236 | 24 | 284 | 0.0 | 8.0 | 0.00 | 0.00 | 0.00 | 40 | 1010.5 |
| 20260504160211 | 19 | 178 | 0.0 | 0.0 | 0.00 | 0.00 | 0.00 | 57 | 1010.5 |
| 20260504151038 | 16 | 106 | 1.6 | 3.2 | 0.00 | 0.00 | 0.00 | 64 | 1010.3 |
| 20260504150529 | 16 | 48 | 0.0 | 4.8 | 0.00 | 0.00 | 0.00 | 66 | 1010.2 |
| 20260504150229 | 15 | 52 | 0.0 | 4.8 | 0.00 | 0.00 | 0.00 | 66 | 1010.2 |
| 20260504141027 | 12 | 70 | 0.0 | 0.0 | 0.00 | 0.00 | 0.00 | 76 | 1010.1 |
| 20260504140539 | 12 | 70 | 0.0 | 6.4 | 0.00 | 0.00 | 0.00 | 77 | 1010.0 |
| 20260504140229 | 12 | 69 | 3.2 | 8.0 | 0.00 | 0.00 | 0.00 | 77 | 1010.0 |
| 20260504130530 | 10 | 65 | 8.0 | 12.9 | 0.00 | 0.00 | 0.00 | 81 | 1009.5 |
| 20260504130230 | 10 | 61 | 8.0 | 11.3 | 0.00 | 0.00 | 0.00 | 81 | 1009.5 |
| 20260504120314 | 10 | 71 | 9.7 | 16.1 | 0.00 | 0.00 | 0.00 | 81 | 1009.2 |
| 20260504110521 | 10 | 44 | 3.2 | 9.7 | 0.00 | 0.00 | 0.00 | 82 | 1009.3 |
| 20260504110142 | 10 | 61 | 4.8 | 12.9 | 0.00 | 0.00 | 0.00 | 82 | 1009.3 |
| 20260504100528 | 11 | 50 | 9.7 | 14.5 | 0.00 | 0.00 | 0.00 | 77 | 1009.4 |
| 20260504100143 | 11 | 69 | 9.7 | 11.3 | 0.00 | 0.00 | 0.00 | 78 | 1009.3 |